Location: Fenton Hill Observtory
(35.8809°N, 106.6741°W)
Time: 09:00:09
(UTC-06:00)

OTV 5 (USA 277) - Visible Passes

Search period start: 24 September 2018 00:00
Search period end: 04 October 2018 00:00
Orbit: 387 x 394 km, 54.5° (Epoch: 08 September)

Date Brightness Start Highest point End Pass type
(mag) Time Alt. Az. Time Alt. Az. Time Alt. Az.
25 Sep ? 06:06:49 10° SSW 06:09:50 41° SE 06:12:52 10° ENE visible
26 Sep ? 05:12:23 13° SSE 05:13:40 16° SE 05:15:45 10° E visible
27 Sep ? 05:51:20 26° SW 05:52:59 82° NW 05:56:10 10° NE visible
28 Sep ? 04:57:42 27° E 04:57:42 27° E 04:59:39 10° ENE visible
28 Sep ? 06:30:27 10° W 06:32:44 18° NW 06:35:00 10° N visible
29 Sep ? 05:36:21 36° NW 05:36:21 36° NW 05:39:12 10° NNE visible
30 Sep ? 04:42:28 14° NE 04:42:28 14° NE 04:43:01 10° NE visible
30 Sep ? 06:15:16 10° NW 06:16:09 11° NNW 06:17:03 10° NNW visible
01 Oct ? 05:20:53 16° N 05:20:53 16° N 05:21:58 10° NNE visible
